TimeEDT,TemperatureF,Dew PointF,Humidity,Sea Level PressureIn,VisibilityMPH,Wind Direction,Wind SpeedMPH,Gust SpeedMPH,PrecipitationIn,Events,Conditions,WindDirDegrees,DateUTC
12:54 AM,55.9,55.0,97,30.27,5.0,Calm,Calm,-,N/A,,Mostly Cloudy,0,2008-09-20 04:54:00
1:03 AM,57.2,55.4,94,30.31,5.0,Calm,Calm,-,N/A,,Mostly Cloudy,0,2008-09-20 05:03:00
1:19 AM,57.2,55.4,94,30.31,7.0,Calm,Calm,-,N/A,,Overcast,0,2008-09-20 05:19:00
1:54 AM,57.9,55.0,90,30.26,8.0,SSE,5.8,-,N/A,,Overcast,160,2008-09-20 05:54:00
2:28 AM,59.0,53.6,82,30.31,10.0,Calm,Calm,-,N/A,,Overcast,0,2008-09-20 06:28:00
2:35 AM,57.2,53.6,88,30.31,10.0,South,3.5,-,N/A,,Overcast,180,2008-09-20 06:35:00
2:54 AM,57.9,53.1,84,30.25,10.0,Calm,Calm,-,N/A,,Mostly Cloudy,0,2008-09-20 06:54:00
3:54 AM,55.9,53.1,90,30.25,8.0,Calm,Calm,-,N/A,,Scattered Clouds,0,2008-09-20 07:54:00
4:54 AM,55.0,53.1,93,30.25,8.0,Calm,Calm,-,N/A,,Scattered Clouds,0,2008-09-20 08:54:00
5:10 AM,55.4,53.6,94,30.29,9.0,Calm,Calm,-,N/A,,Mostly Cloudy,0,2008-09-20 09:10:00
5:54 AM,55.0,53.1,93,30.25,8.0,Calm,Calm,-,N/A,,Mostly Cloudy,0,2008-09-20 09:54:00
6:54 AM,55.9,54.0,93,30.26,8.0,Calm,Calm,-,N/A,,Overcast,0,2008-09-20 10:54:00
7:54 AM,55.9,53.1,90,30.27,10.0,Calm,Calm,-,N/A,,Overcast,0,2008-09-20 11:54:00
8:54 AM,57.0,53.1,87,30.27,10.0,Calm,Calm,-,N/A,,Overcast,0,2008-09-20 12:54:00
9:54 AM,60.1,52.0,75,30.27,10.0,Calm,Calm,-,N/A,,Overcast,0,2008-09-20 13:54:00
10:54 AM,62.1,52.0,70,30.27,10.0,Calm,Calm,-,N/A,,Mostly Cloudy,0,2008-09-20 14:54:00
11:54 AM,66.0,52.0,60,30.25,10.0,Variable,4.6,-,N/A,,Partly Cloudy,0,2008-09-20 15:54:00
12:54 PM,68.0,53.1,59,30.22,10.0,NW,6.9,-,N/A,,Clear,310,2008-09-20 16:54:00
1:54 PM,71.1,51.1,49,30.19,10.0,NNW,9.2,-,N/A,,Partly Cloudy,340,2008-09-20 17:54:00
2:54 PM,71.1,55.0,57,30.17,10.0,SE,10.4,-,N/A,,Scattered Clouds,140,2008-09-20 18:54:00
3:54 PM,70.0,55.0,59,30.17,10.0,SSE,9.2,-,N/A,,Clear,160,2008-09-20 19:54:00
4:54 PM,70.0,55.0,59,30.17,10.0,ESE,6.9,-,N/A,,Clear,120,2008-09-20 20:54:00
5:54 PM,69.1,55.0,61,30.17,10.0,SE,8.1,-,N/A,,Clear,130,2008-09-20 21:54:00
6:54 PM,66.0,55.0,68,30.19,10.0,SE,5.8,-,N/A,,Clear,140,2008-09-20 22:54:00
7:54 PM,64.0,55.0,73,30.19,10.0,Calm,Calm,-,N/A,,Clear,0,2008-09-20 23:54:00
8:54 PM,60.1,55.0,83,30.21,10.0,Calm,Calm,-,N/A,,Clear,0,2008-09-21 00:54:00
9:54 PM,59.0,55.0,87,30.22,10.0,Calm,Calm,-,N/A,,Clear,0,2008-09-21 01:54:00
10:54 PM,57.9,55.0,90,30.23,8.0,Calm,Calm,-,N/A,,Clear,0,2008-09-21 02:54:00
11:54 PM,55.9,54.0,93,30.24,8.0,Calm,Calm,-,N/A,,Clear,0,2008-09-21 03:54:00